N8SHA Weather Reports


time (UTC)temp
C
wind
direction
speed
KPH
gust
KPH
rain 1hr
cm
rain 24hr
cm
rain mn
cm
humidity
%
barometer
mb
20260509000440 16 134 4.8 8.0 0.00 0.00 0.00 35 1006.7
20260508235935 16 193 3.2 9.7 0.00 0.00 0.00 35 1006.7
20260508235433 16 163 3.2 9.7 0.00 0.00 0.00 34 1006.7
20260508234929 16 170 1.6 4.8 0.00 0.00 0.00 36 1006.4
20260508234426 16 186 1.6 11.3 0.00 0.00 0.00 35 1006.7
20260508233924 16 167 4.8 8.0 0.00 0.00 0.00 35 1006.5
20260508233423 16 168 3.2 4.8 0.00 0.00 0.00 35 1006.5
20260508232920 16 207 1.6 4.8 0.00 0.00 0.00 34 1006.6
20260508232417 17 135 0.0 6.4 0.00 0.00 0.00 35 1006.6
20260508231914 17 141 0.0 4.8 0.00 0.00 0.00 33 1006.6
20260508231411 17 160 4.8 9.7 0.00 0.00 0.00 32 1006.5
20260508230908 18 115 3.2 6.4 0.00 0.00 0.00 33 1006.7
20260508230404 18 193 0.0 8.0 0.00 0.00 0.00 33 1006.5
20260508225901 18 52 3.2 8.0 0.00 0.00 0.00 32 1006.7
20260508225358 18 166 3.2 9.7 0.00 0.00 0.00 32 1006.8
20260508224856 18 154 4.8 9.7 0.00 0.00 0.00 33 1006.7
20260508224353 18 235 3.2 9.7 0.00 0.00 0.00 33 1006.8
20260508223850 18 60 1.6 6.4 0.00 0.00 0.00 32 1006.9
20260508223348 18 181 6.4 11.3 0.00 0.00 0.00 32 1006.8
20260508222846 18 123 3.2 11.3 0.00 0.00 0.00 33 1006.9
20260508222342 17 160 0.0 14.5 0.00 0.00 0.00 32 1006.8
20260508221839 17 194 6.4 11.3 0.00 0.00 0.00 33 1006.9
20260508221334 18 166 8.0 14.5 0.00 0.00 0.00 30 1006.9
20260508220831 18 182 4.8 17.7 0.00 0.00 0.00 31 1006.8
20260508220327 19 183 6.4 16.1 0.00 0.00 0.00 31 1006.8
20260508215824 19 173 4.8 9.7 0.00 0.00 0.00 31 1006.9
20260508215321 18 118 4.8 11.3 0.00 0.00 0.00 30 1007.0
20260508214818 20 336 3.2 4.8 0.00 0.00 0.00 31 1006.9
20260508214315 19 132 3.2 9.7 0.00 0.00 0.00 31 1007.2
20260508213811 18 218 4.8 19.3 0.00 0.00 0.00 32 1007.2
20260508213308 19 181 8.0 14.5 0.00 0.00 0.00 31 1007.1
20260508212804 18 287 4.8 14.5 0.00 0.00 0.00 32 1007.1
20260508212301 18 342 6.4 11.3 0.00 0.00 0.00 34 1007.2
20260508211756 18 320 3.2 11.3 0.00 0.00 0.00 33 1007.4
20260508211252 18 199 4.8 14.5 0.00 0.00 0.00 31 1007.2
20260508210750 20 233 3.2 8.0 0.00 0.00 0.00 31 1007.2
20260508210247 20 135 0.0 8.0 0.00 0.00 0.00 33 1007.3
20260508205744 19 165 6.4 11.3 0.00 0.00 0.00 30 1007.5
20260508205240 20 358 1.6 9.7 0.00 0.00 0.00 31 1007.4
20260508204737 20 193 8.0 9.7 0.00 0.00 0.00 29 1007.5
20260508204233 20 200 3.2 4.8 0.00 0.00 0.00 29 1007.4
20260508203729 19 227 8.0 12.9 0.00 0.00 0.00 30 1007.5
20260508203225 18 167 8.0 14.5 0.00 0.00 0.00 30 1007.6
20260508202721 18 324 6.4 11.3 0.00 0.00 0.00 33 1007.8
20260508202219 19 59 1.6 8.0 0.00 0.00 0.00 37 1007.8
20260508201716 18 240 3.2 11.3 0.00 0.00 0.00 29 1007.9
20260508201212 18 93 3.2 12.9 0.00 0.00 0.00 31 1008.1
20260508200709 18 166 6.4 8.0 0.00 0.00 0.00 33 1007.9
20260508200205 18 303 6.4 14.5 0.00 0.00 0.00 32 1008.0
20260508195702 18 183 4.8 16.1 0.00 0.00 0.00 31 1008.2
20260508195158 18 336 9.7 9.7 0.00 0.00 0.00 32 1008.4
20260508194655 17 325 4.8 9.7 0.00 0.00 0.00 35 1008.4
20260508194152 17 14 1.6 4.8 0.00 0.00 0.00 36 1008.6
20260508193649 17 263 4.8 9.7 0.00 0.00 0.00 33 1008.6
20260508193145 17 40 3.2 11.3 0.00 0.00 0.00 34 1008.7
20260508192642 17 272 0.0 9.7 0.00 0.00 0.00 33 1008.6
20260508192140 17 151 4.8 12.9 0.00 0.00 0.00 31 1008.9
20260508191636 18 5 3.2 6.4 0.00 0.00 0.00 33 1008.8
20260508191133 17 321 1.6 11.3 0.00 0.00 0.00 36 1009.0
20260508190630 17 209 0.0 8.0 0.00 0.00 0.00 35 1009.2
20260508190127 17 189 1.6 12.9 0.00 0.00 0.00 32 1009.0
20260508185624 17 267 3.2 11.3 0.00 0.00 0.00 35 1008.9
20260508185121 16 258 3.2 12.9 0.00 0.00 0.00 35 1009.0
20260508184618 17 168 4.8 14.5 0.00 0.00 0.00 34 1009.0
20260508184115 17 31 0.0 11.3 0.00 0.00 0.00 32 1009.3
20260508183612 17 182 8.0 9.7 0.00 0.00 0.00 31 1009.4
20260508183107 17 305 1.6 8.0 0.00 0.00 0.00 32 1009.3
20260508182604 17 196 6.4 11.3 0.00 0.00 0.00 33 1009.3
20260508182055 17 199 3.2 12.9 0.00 0.00 0.00 36 1009.5
20260508181550 16 64 0.0 6.4 0.00 0.00 0.00 36 1009.5
20260508181048 16 217 4.8 8.0 0.00 0.00 0.00 32 1009.4
20260508180545 16 13 3.2 12.9 0.00 0.00 0.00 35 1009.8
20260508180041 16 337 6.4 11.3 0.00 0.00 0.00 38 1009.7
20260508175538 17 135 0.0 4.8 0.00 0.00 0.00 38 1009.7
20260508175035 17 96 0.0 8.0 0.00 0.00 0.00 35 1010.0
20260508174533 16 4 3.2 6.4 0.00 0.00 0.00 32 1010.0
20260508174029 16 359 8.0 11.3 0.00 0.00 0.00 34 1010.0
20260508173526 16 331 4.8 12.9 0.00 0.00 0.00 33 1010.3
20260508173022 16 161 4.8 8.0 0.00 0.00 0.00 33 1010.4
20260508172519 16 323 9.7 16.1 0.00 0.00 0.00 34 1010.5
20260508172016 16 317 4.8 12.9 0.00 0.00 0.00 40 1010.5
20260508171512 16 158 3.2 9.7 0.00 0.00 0.00 33 1010.1
20260508171009 16 151 6.4 11.3 0.00 0.00 0.00 31 1010.5
20260508170506 15 137 0.0 8.0 0.00 0.00 0.00 40 1010.7
20260508170004 16 310 1.6 8.0 0.00 0.00 0.00 40 1010.7
20260508165501 16 193 3.2 11.3 0.00 0.00 0.00 35 1010.7
20260508164956 16 305 3.2 8.0 0.00 0.00 0.00 34 1010.7
20260508164454 16 332 4.8 9.7 0.00 0.00 0.00 37 1010.8
20260508163950 15 116 1.6 6.4 0.00 0.00 0.00 39 1010.9
20260508163448 15 325 4.8 17.7 0.00 0.00 0.00 35 1011.1
20260508162944 15 322 4.8 11.3 0.00 0.00 0.00 39 1011.0
20260508162442 16 167 6.4 11.3 0.00 0.00 0.00 36 1011.1
20260508161938 15 205 3.2 4.8 0.00 0.00 0.00 37 1011.2
20260508161436 15 233 3.2 8.0 0.00 0.00 0.00 36 1011.2
20260508160933 15 323 6.4 9.7 0.00 0.00 0.00 38 1011.2
20260508160432 15 322 4.8 9.7 0.00 0.00 0.00 39 1011.2
20260508155927 15 54 1.6 8.0 0.00 0.00 0.00 38 1011.2
20260508155425 15 146 0.0 4.8 0.00 0.00 0.00 42 1011.3
20260508154921 15 226 0.0 3.2 0.00 0.00 0.00 40 1011.4
20260508154419 15 94 3.2 6.4 0.00 0.00 0.00 43 1011.5
20260508153915 15 188 4.8 16.1 0.00 0.00 0.00 37 1011.6
20260508153413 15 218 3.2 9.7 0.00 0.00 0.00 39 1011.4
20260508152909 14 104 1.6 8.0 0.00 0.00 0.00 39 1011.5
20260508152405 14 55 4.8 6.4 0.00 0.00 0.00 43 1011.4
20260508151902 14 107 6.4 11.3 0.00 0.00 0.00 39 1011.3
20260508151359 14 343 3.2 6.4 0.00 0.00 0.00 44 1011.3
20260508150855 14 356 3.2 9.7 0.00 0.00 0.00 44 1011.5
20260508150352 13 337 0.0 6.4 0.00 0.00 0.00 40 1011.6
20260508145848 13 25 6.4 8.0 0.00 0.00 0.00 36 1011.6
20260508145344 13 198 3.2 8.0 0.00 0.00 0.00 32 1011.8
20260508144841 13 29 4.8 8.0 0.00 0.00 0.00 41 1011.8
20260508144339 12 41 1.6 8.0 0.00 0.00 0.00 44 1011.8
20260508143836 12 177 6.4 11.3 0.00 0.00 0.00 43 1011.7
20260508143333 12 156 4.8 12.9 0.00 0.00 0.00 42 1011.7
20260508142830 12 336 6.4 9.7 0.00 0.00 0.00 48 1011.7
20260508142327 11 31 0.0 8.0 0.00 0.00 0.00 49 1011.6
20260508141823 11 156 4.8 6.4 0.00 0.00 0.00 44 1011.8
20260508141320 11 12 4.8 4.8 0.00 0.00 0.00 52 1011.7
20260508140818 10 94 3.2 6.4 0.00 0.00 0.00 52 1011.7
20260508140315 10 63 3.2 8.0 0.00 0.00 0.00 51 1011.8
20260508135810 10 164 3.2 6.4 0.00 0.00 0.00 51 1011.8
20260508135306 10 126 3.2 4.8 0.00 0.00 0.00 55 1012.0
20260508134756 10 36 4.8 4.8 0.00 0.00 0.00 56 1012.2
20260508134254 10 93 0.0 4.8 0.00 0.00 0.00 55 1012.2
20260508133751 9 98 0.0 4.8 0.00 0.00 0.00 57 1012.0
20260508133248 9 100 3.2 6.4 0.00 0.00 0.00 55 1012.2
20260508132746 9 88 3.2 8.0 0.00 0.00 0.00 55 1011.9
20260508132243 10 38 1.6 4.8 0.00 0.00 0.00 54 1012.0
20260508131739 10 86 1.6 3.2 0.00 0.00 0.00 57 1012.0
20260508131235 9 120 0.0 4.8 0.00 0.00 0.00 57 1012.1
20260508130732 8 109 3.2 4.8 0.00 0.00 0.00 58 1012.1
20260508130229 9 166 0.0 4.8 0.00 0.00 0.00 59 1012.0
20260508125725 9 129 0.0 3.2 0.00 0.00 0.00 58 1012.2
20260508125221 10 131 3.2 4.8 0.00 0.00 0.00 58 1012.0
20260508124720 10 358 3.2 4.8 0.00 0.00 0.00 58 1012.1
20260508124216 9 49 0.0 4.8 0.00 0.00 0.00 64 1012.0
20260508123715 8 147 1.6 3.2 0.00 0.00 0.00 67 1012.2
20260508123212 8 129 0.0 3.2 0.00 0.00 0.00 69 1012.1
20260508122708 8 93 1.6 4.8 0.00 0.00 0.00 71 1012.1
20260508122205 7 114 0.0 3.2 0.00 0.00 0.00 75 1012.0
20260508121703 7 112 3.2 4.8 0.00 0.00 0.00 77 1011.9
20260508121201 6 94 0.0 3.2 0.00 0.00 0.00 79 1012.0
20260508120658 6 93 0.0 3.2 0.00 0.00 0.00 80 1011.8
20260508120156 5 128 3.2 3.2 0.00 0.00 0.00 80 1011.5
20260508115654 5 116 3.2 3.2 0.00 0.00 0.00 80 1011.8
20260508115150 5 78 0.0 4.8 0.00 0.00 0.00 80 1011.6
20260508114647 5 102 1.6 4.8 0.00 0.00 0.00 81 1011.5
20260508114144 5 89 0.0 3.2 0.00 0.00 0.00 81 1011.7
20260508113641 4 100 1.6 3.2 0.00 0.00 0.00 82 1011.3
20260508113139 3 113 0.0 3.2 0.00 0.00 0.00 83 1011.3
20260508112635 3 77 0.0 3.2 0.00 0.00 0.00 84 1011.6
20260508112132 3 112 3.2 3.2 0.00 0.00 0.00 84 1011.5
20260508111628 3 92 1.6 3.2 0.00 0.00 0.00 85 1011.4
20260508111125 3 95 1.6 3.2 0.00 0.00 0.00 85 1011.3
20260508110618 3 89 1.6 3.2 0.00 0.00 0.00 86 1011.2
20260508110113 3 106 0.0 3.2 0.00 0.00 0.00 86 1011.3
20260508105608 3 93 1.6 3.2 0.00 0.00 0.00 86 1011.3
20260508105106 2 104 3.2 3.2 0.00 0.00 0.00 86 1011.2
20260508104603 2 104 3.2 3.2 0.00 0.00 0.00 86 1011.2
20260508104100 2 102 1.6 3.2 0.00 0.00 0.00 86 1011.2
20260508103557 2 104 3.2 3.2 0.00 0.00 0.00 86 1011.2
20260508103054 2 105 1.6 3.2 0.00 0.00 0.00 86 1011.2
20260508102552 2 101 3.2 3.2 0.00 0.00 0.00 86 1011.2
20260508102049 2 82 1.6 3.2 0.00 0.00 0.00 85 1011.1
20260508101547 2 106 1.6 4.8 0.00 0.00 0.00 86 1011.2
20260508101044 2 105 1.6 3.2 0.00 0.00 0.00 86 1011.4
20260508100542 2 108 3.2 4.8 0.00 0.00 0.00 86 1011.2
20260508100038 2 116 3.2 4.8 0.00 0.00 0.00 86 1011.4
20260508095536 2 107 3.2 4.8 0.00 0.00 0.00 86 1011.2
20260508095032 2 94 1.6 4.8 0.00 0.00 0.00 86 1011.3
20260508094529 2 85 1.6 4.8 0.00 0.00 0.00 86 1011.4
20260508094026 2 60 0.0 4.8 0.00 0.00 0.00 86 1011.3
20260508093523 2 116 1.6 3.2 0.00 0.00 0.00 86 1011.3
20260508093021 2 55 0.0 3.2 0.00 0.00 0.00 86 1011.5
20260508092518 2 57 0.0 4.8 0.00 0.00 0.00 87 1011.3
20260508092017 2 114 4.8 4.8 0.00 0.00 0.00 87 1011.4
20260508091514 2 124 3.2 4.8 0.00 0.00 0.00 87 1011.5
20260508091010 2 122 3.2 4.8 0.00 0.00 0.00 86 1011.5
20260508090509 2 103 1.6 3.2 0.00 0.00 0.00 86 1011.5
20260508090005 2 101 1.6 3.2 0.00 0.00 0.00 85 1011.5
20260508085501 2 120 3.2 3.2 0.00 0.00 0.00 85 1011.5
20260508084958 3 74 1.6 3.2 0.00 0.00 0.00 84 1011.6
20260508084455 3 95 3.2 4.8 0.00 0.00 0.00 84 1011.5
20260508083953 3 126 1.6 4.8 0.00 0.00 0.00 84 1011.4
20260508083449 3 76 3.2 4.8 0.00 0.00 0.00 84 1011.4
20260508082945 3 103 0.0 4.8 0.00 0.00 0.00 84 1011.4
20260508082442 3 74 3.2 4.8 0.00 0.00 0.00 84 1011.6
20260508081940 3 70 0.0 3.2 0.00 0.00 0.00 83 1011.5
20260508081436 3 110 1.6 3.2 0.00 0.00 0.00 83 1011.6
20260508080932 3 99 0.0 3.2 0.00 0.00 0.00 83 1011.6
20260508080431 3 92 1.6 3.2 0.00 0.00 0.00 82 1011.5
20260508075927 3 92 1.6 3.2 0.00 0.00 0.00 82 1011.7
20260508075424 3 80 0.0 3.2 0.00 0.00 0.00 81 1011.5
20260508074922 3 103 1.6 3.2 0.00 0.00 0.00 81 1011.5
20260508074419 4 108 3.2 3.2 0.00 0.00 0.00 81 1011.6
20260508073916 4 98 3.2 4.8 0.00 0.00 0.00 81 1011.5
20260508073413 3 85 3.2 4.8 0.00 0.00 0.00 80 1011.4